Location: Harburg
(48.7667°N, 10.6667°E)
Time: 05:40:07
(UTC+00:00)

Meteor 1-24 Rocket - Pass Details

Date: 18 September 2020
Orbit: 790 x 927 km, 81.2° (Epoch: 29 October)

Event Time Altitude Azimuth Distance (km) Brightness Sun altitude
Rises 19:05:17 0° 353° (N) 3,342 7.2 -17.2°
Reaches altitude 10° 19:07:50 10° 2° (N) 2,423 6.3 -17.6°
Maximum altitude 19:12:54 37° 70° (ENE) 1,275 4.3 -18.3°
Enters shadow 19:14:21 32° 102° (ESE) 1,411 4.3 -18.5°
